CT1ETE Weather Reports


time (UTC)temp
C
wind
direction
speed
KPH
gust
KPH
rain 1hr
cm
rain 24hr
cm
rain mn
cm
humidity
%
barometer
mb
20260901062832 16 110 6.4 16.1 0.00 0.00 0.00 80 1019.4
20260901061332 16 120 9.7 16.1 0.00 0.03 0.00 79 1019.4
20260901060547 16 136 4.8 6.4 0.00 0.03 0.00 76 1019.3
20260901054332 15 140 1.6 4.8 0.00 0.03 0.00 74 1019.3
20260901053529 15 140 3.2 4.8 0.00 0.03 0.00 75 1019.3
20260901052021 15 140 1.6 3.2 0.00 0.03 0.00 78 1019.2
20260901045830 15 140 0.0 0.0 0.00 0.03 0.00 79 1019.1
20260901044329 15 140 0.0 1.6 0.00 0.03 0.00 78 1019.2
20260901042826 15 140 1.6 3.2 0.00 0.03 0.00 79 1019.0
20260901041326 15 140 0.0 3.2 0.00 0.03 0.00 80 1019.1
20260901035823 15 140 0.0 3.2 0.00 0.03 0.00 81 1019.1
20260901034322 16 140 0.0 3.2 0.00 0.03 0.00 81 1019.0
20260901032820 16 140 1.6 4.8 0.00 0.03 0.00 81 1019.0
20260901031319 16 140 0.0 3.2 0.00 0.03 0.00 83 1019.0
20260901025818 16 140 0.0 3.2 0.00 0.03 0.00 83 1019.2
20260901024324 16 140 0.0 6.4 0.00 0.03 0.00 82 1019.4
20260901022816 16 247 3.2 6.4 0.00 0.03 0.00 82 1019.4
20260901022005 16 247 3.2 8.0 0.00 0.03 0.00 83 1019.4
20260901015812 16 82 3.2 6.4 0.00 0.03 0.00 83 1019.3
20260901015005 16 82 8.0 12.9 0.00 0.03 0.00 83 1019.4
20260901012810 16 85 1.6 9.7 0.00 0.03 0.00 84 1019.5
20260901011309 16 196 4.8 11.3 0.00 0.03 0.00 84 1019.5
20260901010457 16 89 4.8 8.0 0.00 0.03 0.00 83 1019.5
20260901004309 16 82 3.2 8.0 0.00 0.03 0.00 83 1019.7
20260901002810 16 82 4.8 12.9 0.00 0.03 0.00 84 1019.9
20260901001312 16 82 6.4 11.3 0.00 0.03 0.00 84 1019.8
20260831235809 17 123 8.0 12.9 0.00 0.03 0.00 84 1020.0
20260831234309 17 127 8.0 12.9 0.00 0.03 0.00 84 1020.0
20260831232810 17 228 1.6 6.4 0.00 0.03 0.00 84 1020.2
20260831231308 17 229 0.0 0.0 0.00 0.03 0.00 84 1020.3
20260831225808 17 229 0.0 0.0 0.00 0.03 0.03 83 1020.3
20260831224308 17 228 0.0 0.0 0.00 0.03 0.03 83 1020.4
20260831223457 17 229 0.0 0.0 0.00 0.03 0.03 83 1020.3
20260831221307 17 228 0.0 1.6 0.00 0.03 0.03 83 1020.3
20260831221202 18 229 3.2 4.8 0.00 0.03 0.03 82 1020.4
20260831214308 18 228 1.6 4.8 0.00 0.03 0.03 81 1020.4
20260831212808 18 229 4.8 6.4 0.00 0.03 0.03 80 1020.5
20260831211308 18 228 1.6 3.2 0.00 0.03 0.03 80 1020.5
20260831205808 18 229 1.6 3.2 0.00 0.03 0.03 80 1020.4
20260831205008 18 229 4.8 8.0 0.00 0.03 0.03 79 1020.5
20260831202803 19 229 4.8 9.7 0.00 0.03 0.03 79 1020.3
20260831201300 19 228 8.0 11.3 0.00 0.03 0.03 78 1020.2
20260831195758 20 227 8.0 12.9 0.00 0.03 0.03 77 1020.1
20260831194257 20 246 8.0 16.1 0.00 0.03 0.03 75 1020.0
20260831193447 21 244 8.0 14.5 0.00 0.03 0.03 73 1019.9
20260831191253 21 248 6.4 16.1 0.00 0.03 0.03 70 1019.8
20260831185753 22 244 9.7 19.3 0.00 0.03 0.03 68 1019.7
20260831184249 23 275 6.4 14.5 0.00 0.03 0.03 65 1019.5
20260831183452 23 287 8.0 16.1 0.00 0.03 0.03 63 1019.5
20260831181247 24 246 9.7 19.3 0.00 0.03 0.03 62 1019.5
20260831175748 24 246 8.0 17.7 0.00 0.03 0.03 60 1019.4
20260831174247 25 286 11.3 17.7 0.00 0.03 0.03 59 1019.5
20260831172747 25 273 9.7 17.7 0.00 0.03 0.03 57 1019.4
20260831171241 25 273 14.5 25.7 0.00 0.03 0.03 57 1019.5
20260831165741 25 257 12.9 24.1 0.00 0.03 0.03 57 1019.5
20260831164241 25 236 16.1 24.1 0.00 0.03 0.03 54 1019.5
20260831163435 26 232 14.5 24.1 0.00 0.03 0.03 52 1019.6
20260831161241 26 246 9.7 25.7 0.00 0.03 0.03 48 1019.6
20260831155744 26 261 4.8 14.5 0.00 0.03 0.03 41 1019.8
20260831154240 26 273 4.8 16.1 0.00 0.03 0.03 39 1019.9
20260831152737 26 256 3.2 12.9 0.00 0.03 0.03 40 1020.0
20260831151239 26 248 4.8 12.9 0.00 0.03 0.03 43 1020.1
20260831145735 26 286 6.4 12.9 0.00 0.03 0.03 43 1020.2
20260831144235 26 328 3.2 11.3 0.00 0.03 0.03 44 1020.3
20260831142735 26 286 6.4 16.1 0.00 0.03 0.03 46 1020.5
20260831141231 25 301 6.4 12.9 0.00 0.03 0.03 48 1020.6
20260831135730 25 211 4.8 9.7 0.00 0.03 0.03 49 1020.7
20260831134231 25 202 3.2 11.3 0.00 0.03 0.03 51 1020.7
20260831132730 24 261 3.2 9.7 0.00 0.03 0.03 51 1020.8
20260831131231 24 248 6.4 14.5 0.00 0.05 0.03 55 1021.0
20260831125729 23 275 4.8 11.3 0.00 0.05 0.03 52 1021.1
20260831124927 23 347 4.8 12.9 0.00 0.05 0.03 53 1021.3
20260831122727 23 264 3.2 14.5 0.00 0.05 0.03 58 1021.4
20260831121924 22 241 6.4 16.1 0.00 0.05 0.03 59 1021.6
20260831115722 22 182 6.4 14.5 0.00 0.05 0.03 58 1021.8
20260831114925 21 293 8.0 14.5 0.00 0.05 0.03 60 1021.9
20260831112723 21 237 6.4 12.9 0.00 0.05 0.03 59 1021.9
20260831111223 21 246 8.0 16.1 0.00 0.05 0.03 60 1022.1
20260831105723 21 245 8.0 16.1 0.00 0.05 0.03 62 1022.1
20260831104223 20 232 6.4 14.5 0.00 0.05 0.03 68 1022.1
20260831102722 20 260 6.4 12.9 0.00 0.05 0.03 71 1022.1
20260831101222 19 239 4.8 11.3 0.00 0.05 0.03 71 1022.1
20260831095720 19 242 4.8 11.3 0.00 0.05 0.03 78 1022.1
20260831094221 18 242 3.2 6.4 0.00 0.05 0.03 81 1021.9
20260831092718 17 242 3.2 8.0 0.00 0.05 0.03 84 1021.9
20260831091829 16 236 6.4 8.0 0.00 0.05 0.03 81 1021.9
20260831091231 17 240 6.4 11.3 0.00 0.05 0.03 83 1022.0
20260831084214 16 236 1.6 4.8 0.00 0.05 0.03 74 1021.8
20260831082714 16 236 0.0 3.2 0.00 0.05 0.03 64 1021.9
20260831081214 16 236 0.0 0.0 0.00 0.05 0.03 59 1021.9
20260831075712 15 236 0.0 0.0 0.00 0.05 0.03 58 1021.9
20260831075618 14 236 0.0 1.6 0.00 0.05 0.03 59 1021.8
20260831072711 14 236 0.0 0.0 0.00 0.05 0.03 59 1021.7
20260831071208 13 236 0.0 1.6 0.03 0.05 0.03 60 1021.7
20260831065706 13 236 0.0 3.2 0.03 0.05 0.03 62 1021.6
20260831064206 13 236 0.0 3.2 0.03 0.05 0.03 62 1021.6
20260831064108 13 236 3.2 4.8 0.03 0.05 0.03 62 1021.4